Flag for Switzerland Weather past 2 weeks in Vernier, Geneva, Switzerland

Now
61 °F

Passing clouds.


Feels Like: 61 °F
Forecast: 52 / 78 °F
Wind: 2 mph from Southwest

Location: Geneva Cointrin Airport

Current Time: Aug 28, 2014 at 1:06:39 AM

Latest Report: Aug 28, 2014 at 12:20 AM


Visibility: N/A

Pressure: 30.07 "Hg

Humidity: 83%

Dew point: 55 °F

Location of VernierLocation

Historic Weather in Vernier — Graph

°F

Vernier temperature yesterday

Maximum temperature yesterday: 75 °F (at 2:50 PM)
Minimum temperature yesterday: 59 °F (at 7:20 AM)
Average temperature yesterday: 67 °F

Past Weeks' High & Low Weather Summary

 TemperatureHumidityPressure
High77 °F (Aug 18, 3:50 PM)100% (Aug 13, 5:50 AM)30.21 "Hg (Aug 13, 5:50 AM)
Low46 °F (Aug 17, 4:50 AM)34% (Aug 18, 3:50 PM)29.74 "Hg (Aug 13, 6:50 AM)
Average61 °F72%30.02 "Hg
* Reported Aug 12 11:20 PM — Aug 27 11:50 PM, Vernier, Weather by CustomWeather, © 2014

Note: Actual official high and low records may vary slightly from our data, if they occured in-between our weather recording intervals... More about our weather records

Advertising

Vernier weather history for previous 24 hours

 ConditionsComfort  
Time TempWeatherWind HumidityBarometerVisibility
11:50 PM
Aug 27
61 °FPassing clouds.2 mph83%30.07 "HgN/A
11:20 PM61 °FPassing clouds.3 mph83%30.07 "HgN/A
10:50 PM63 °FPassing clouds.No wind77%30.07 "HgN/A
10:20 PM61 °FPassing clouds.2 mph83%30.04 "HgN/A
9:50 PM63 °FPassing clouds.2 mph77%30.04 "HgN/A
9:20 PM64 °FScattered clouds.6 mph68%30.04 "HgN/A
8:50 PM64 °FPartly sunny.2 mph73%30.04 "HgN/A
7:50 PM68 °FScattered clouds.5 mph60%30.01 "HgN/A
7:20 PM70 °FScattered clouds.7 mph57%30.01 "HgN/A
6:20 PM70 °FScattered clouds.5 mph57%30.01 "HgN/A
5:50 PM72 °FScattered clouds.7 mph53%30.01 "HgN/A
4:20 PM73 °FScattered clouds.3 mph50%30.01 "HgN/A
3:50 PM73 °FScattered clouds.2 mph47%30.01 "HgN/A
3:20 PM73 °FPassing clouds.3 mph50%30.01 "HgN/A
2:50 PM75 °FPassing clouds.2 mph44%30.01 "HgN/A
2:20 PM73 °FPassing clouds.6 mph47%30.01 "HgN/A
1:50 PM73 °FPassing clouds.5 mph47%30.01 "HgN/A
1:20 PM73 °FPassing clouds.5 mph47%30.01 "HgN/A
12:50 PM73 °FScattered clouds.2 mph47%30.01 "HgN/A
12:20 PM72 °FScattered clouds.7 mph53%30.01 "HgN/A
11:50 AM70 °FPartly sunny.5 mph53%30.01 "HgN/A
11:20 AM72 °FScattered clouds.6 mph50%30.01 "HgN/A
10:50 AM70 °FScattered clouds.5 mph53%30.01 "HgN/A
10:20 AM70 °FScattered clouds.9 mph57%30.01 "HgN/A
9:50 AM68 °FScattered clouds.8 mph64%30.01 "HgN/A
9:20 AM66 °FScattered clouds.3 mph68%30.01 "HgN/A
8:50 AM64 °FScattered clouds.5 mph73%30.01 "HgN/A
8:20 AM63 °FScattered clouds.5 mph77%30.01 "HgN/A
7:50 AM63 °FScattered clouds.7 mph83%29.98 "HgN/A
7:20 AM59 °FPassing clouds.2 mph94%29.98 "HgN/A
6:50 AM61 °FPassing clouds.3 mph88%29.98 "HgN/A
6:20 AM63 °FPassing clouds.6 mph83%29.98 "HgN/A
5:50 AM63 °FScattered showers. Passing clouds.6 mph83%29.98 "HgN/A
5:20 AM63 °FPassing clouds.9 mph83%29.95 "HgN/A
4:50 AM63 °FPassing clouds.9 mph83%29.95 "HgN/A
4:20 AM63 °FPassing clouds.5 mph83%29.95 "HgN/A
3:50 AM63 °FPassing clouds.9 mph83%29.95 "HgN/A
2:50 AM63 °FPassing clouds.6 mph88%29.95 "HgN/A
2:20 AM64 °FPassing clouds.7 mph83%29.95 "HgN/A
1:50 AM64 °FPassing clouds.9 mph83%29.95 "HgN/A
1:20 AM66 °FScattered showers. Passing clouds.12 mph83%29.95 "HgN/A
Weather by CustomWeather, © 2014

See weather overviewHow to use our weather pages